MOLNIYA 3-13

Satellite information

Favourite Embed

Satellite Type and Status

PAYLOADIN ORBIT

Key statistics

Satellite MOLNIYA 3-13 at a glance.

Uptime

16363

Days in orbit

Revolutions

≈ 2.0

Per day

Orbit

HEO

HEO

Inclination

63.7

Latest

Satellite identification and parameters

Extended collection of information and parameters for MOLNIYA 3-13.

Object identification

Identified? True

Debris? False

Object name: MOLNIYA 3-13

International designator: 1980-063A

Object number (NORAD): 11896

Object ID (CCSDS): 11896

Country: COMMONWEALTH OF INDEPENDENT STATES (CIS)

Current information (Y/N): Y

RCS size: LARGE

Orbital parameters

Period: 717.709 minutes

Inclination: 63.6851 deg

SMA: 26553.747 km

Apoapsis: 39623.505 km

Periapsis: 727.719 km

RAAN: 347.9918 deg

Eccentricy: 0.7323973

Argument of periapsis: 278.1916 deg

Mean anomaly: 11.9293 deg

Mean motion: 2.00638391 rev/day

Mean motion (dot): -0.00000446 rev/day2

B* drag term: 0.00069832 1/REarth

Two-line elements (TLE)

Creation date: May 4, 2025, 5:21 p.m.

Reference frame: TEME

Reference center: EARTH

Epoch: May 3, 2025, 3:30 p.m. UTC

TLE line 0: 0 MOLNIYA 3-13

TLE line 1: 1 11896U 80063A 25123.64584874 -.00000446 00000-0 69832-3 0 9997

TLE line 2: 2 11896 63.6851 347.9918 7323973 278.1916 11.9293 2.00638391328184

Live tracking on map

Real-time ground track for satellite MOLNIYA 3-13.

In-orbit conjunctions

A list of the most updated potential collisions computed for object MOLNIYA 3-13.

Target Orbit TCA Probability of collision Miss distance Type
MOLNIYA 1-63 HEO 2024-11-02 00:34:16 TBA 1187.0 (m) PAYLOAD

Associated space launch

Molniya communication satellites operating from a highly elliptical orbit

MOLNIYA 3-13 was lifted into orbit during the mission ‘Molniya-M | Molniya-3 27L’, on board a Molniya-M space rocket.

The launch took place on July 18, 1980, 10:37 a.m. from 43/3 (43L).

For more information about the launch, click the button.

Launch to space Molniya-M | Molniya-3 27L
Molniya-M | Molniya-3 27L

Agency: N/A

Status: Launch Successful

Launch date: July 18, 1980, 10:37 a.m. UTC

Rocket: Molniya-M

Launch pad: 43/3 (43L)

Location: Plesetsk Cosmodrome, Russian Federation

...

Latest news about this satellite

There are no fresh news available about this satellite. Check back as we update our databases every day.


Newsletter sign-up

Weekly statistics, charts and insights to help you stay on top of the space industry.